KO6KXY-13 Weather Reports


time (UTC)temp
C
wind
direction
speed
KPH
gust
KPH
rain 1hr
cm
rain 24hr
cm
rain mn
cm
humidity
%
barometer
mb
20260902204300 30 0.0 0.0 0.00 0.00 0.00 34 1016.2
20260902203800 31 0.0 0.0 0.00 0.00 0.00 32 1016.3
20260902203259 31 0.0 0.0 0.00 0.00 0.00 32 1016.3
20260902202758 30 0.0 0.0 0.00 0.00 0.00 33 1016.2
20260902202258 29 0.0 0.0 0.00 0.00 0.00 36 1016.4
20260902201757 30 0.0 0.0 0.00 0.00 0.00 36 1016.4
20260902201256 29 0.0 0.0 0.00 0.00 0.00 37 1016.4
20260902200756 30 0.0 0.0 0.00 0.00 0.00 34 1016.5
20260902200255 31 0.0 0.0 0.00 0.00 0.00 31 1016.6
20260902195754 29 0.0 0.0 0.00 0.00 0.00 35 1016.7
20260902195253 28 0.0 0.0 0.00 0.00 0.00 40 1016.7
20260902194753 28 0.0 0.0 0.00 0.00 0.00 38 1016.7
20260902194252 28 0.0 0.0 0.00 0.00 0.00 40 1016.8
20260902193751 29 0.0 0.0 0.00 0.00 0.00 38 1016.9
20260902193251 28 0.0 0.0 0.00 0.00 0.00 39 1017.0
20260902192750 27 0.0 0.0 0.00 0.00 0.00 42 1017.1
20260902192249 27 0.0 0.0 0.00 0.00 0.00 41 1017.2
20260902191748 27 0.0 0.0 0.00 0.00 0.00 42 1017.2
20260902191248 27 0.0 0.0 0.00 0.00 0.00 43 1017.3
20260902190747 27 0.0 0.0 0.00 0.00 0.00 42 1017.4
20260902190246 26 0.0 0.0 0.00 0.00 0.00 45 1017.5
20260902185745 26 0.0 0.0 0.00 0.00 0.00 46 1017.5
20260902185245 26 0.0 0.0 0.00 0.00 0.00 47 1017.5
20260902184744 26 0.0 0.0 0.00 0.00 0.00 46 1017.5
20260902184243 26 0.0 0.0 0.00 0.00 0.00 47 1017.4
20260902183742 25 0.0 0.0 0.00 0.00 0.00 49 1017.5
20260902183241 25 0.0 0.0 0.00 0.00 0.00 50 1017.6
20260902182741 25 0.0 0.0 0.00 0.00 0.00 50 1017.6
20260902182240 24 0.0 0.0 0.00 0.00 0.00 51 1017.7
20260902181739 24 0.0 0.0 0.00 0.00 0.00 51 1017.6
20260902181238 25 0.0 0.0 0.00 0.00 0.00 51 1017.7
20260902180737 24 0.0 0.0 0.00 0.00 0.00 52 1017.7
20260902180237 23 0.0 0.0 0.00 0.00 0.00 54 1017.8
20260902175736 23 0.0 0.0 0.00 0.00 0.00 54 1017.8
20260902175235 23 0.0 0.0 0.00 0.00 0.00 56 1017.8
20260902174734 23 0.0 0.0 0.00 0.00 0.00 53 1017.8
20260902174233 23 0.0 0.0 0.00 0.00 0.00 55 1017.8
20260902173732 23 0.0 0.0 0.00 0.00 0.00 56 1017.8
20260902173232 23 0.0 0.0 0.00 0.00 0.00 58 1017.7
20260902172731 22 0.0 0.0 0.00 0.00 0.00 61 1017.6
20260902172230 22 0.0 0.0 0.00 0.00 0.00 60 1017.6
20260902171729 22 0.0 0.0 0.00 0.00 0.00 60 1017.7
20260902171229 22 0.0 0.0 0.00 0.00 0.00 62 1017.6
20260902170727 22 0.0 0.0 0.00 0.00 0.00 62 1017.6
20260902170227 22 0.0 0.0 0.00 0.00 0.00 62 1017.6
20260902165726 22 0.0 0.0 0.00 0.00 0.00 62 1017.5
20260902165225 22 0.0 0.0 0.00 0.00 0.00 64 1017.5
20260902164724 21 0.0 0.0 0.00 0.00 0.00 64 1017.5
20260902164224 21 0.0 0.0 0.00 0.00 0.00 65 1017.6
20260902163723 21 0.0 0.0 0.00 0.00 0.00 66 1017.6
20260902163222 21 0.0 0.0 0.00 0.00 0.00 66 1017.5
20260902162721 21 0.0 0.0 0.00 0.00 0.00 68 1017.4
20260902162220 20 0.0 0.0 0.00 0.00 0.00 68 1017.5
20260902161719 20 0.0 0.0 0.00 0.00 0.00 69 1017.5
20260902161218 21 0.0 0.0 0.00 0.00 0.00 70 1017.5
20260902160717 20 0.0 0.0 0.00 0.00 0.00 70 1017.5
20260902160217 20 0.0 0.0 0.00 0.00 0.00 70 1017.3
20260902155716 20 0.0 0.0 0.00 0.00 0.00 71 1017.4
20260902155215 20 0.0 0.0 0.00 0.00 0.00 70 1017.5
20260902154714 20 0.0 0.0 0.00 0.00 0.00 71 1017.5
20260902154214 20 0.0 0.0 0.00 0.00 0.00 72 1017.5
20260902154140 20 0.0 0.0 0.00 0.00 0.00 72 1017.5
20260902153639 20 0.0 0.0 0.00 0.00 0.00 72 1017.5
20260902153138 19 0.0 0.0 0.00 0.00 0.00 73 1017.5
20260902152637 19 0.0 0.0 0.00 0.00 0.00 73 1017.6
20260902152136 19 0.0 0.0 0.00 0.00 0.00 73 1017.5
20260902151635 18 0.0 0.0 0.00 0.00 0.00 73 1017.5
20260902151134 18 0.0 0.0 0.00 0.00 0.00 73 1017.4
20260902150633 18 0.0 0.0 0.00 0.00 0.00 74 1017.4
20260902150133 18 0.0 0.0 0.00 0.00 0.00 74 1017.4
20260902145024 18 0.0 0.0 0.00 0.00 0.00 75 1017.4
20260902144523 18 0.0 0.0 0.00 0.00 0.00 76 1017.2
20260902144022 17 0.0 0.0 0.00 0.00 0.00 76 1017.1
20260902143521 17 0.0 0.0 0.00 0.00 0.00 76 1017.1
20260902143021 17 0.0 0.0 0.00 0.00 0.00 77 1017.0
20260902142521 17 0.0 0.0 0.00 0.00 0.00 78 1017.0
20260902142021 17 0.0 0.0 0.00 0.00 0.00 77 1017.0
20260902141521 17 0.0 0.0 0.00 0.00 0.00 76 1017.0
20260902141020 17 0.0 0.0 0.00 0.00 0.00 75 1016.9
20260902140519 17 0.0 0.0 0.00 0.00 0.00 75 1016.9
20260902140018 17 0.0 0.0 0.00 0.00 0.00 76 1016.8
20260902135517 17 0.0 0.0 0.00 0.00 0.00 75 1016.7
20260902135016 17 0.0 0.0 0.00 0.00 0.00 76 1016.6
20260902134517 17 0.0 0.0 0.00 0.00 0.00 77 1016.5
20260902134016 17 0.0 0.0 0.00 0.00 0.00 77 1016.5
20260902133516 17 0.0 0.0 0.00 0.00 0.00 77 1016.4
20260902133016 17 0.0 0.0 0.00 0.00 0.00 78 1016.5
20260902132515 17 0.0 0.0 0.00 0.00 0.00 78 1016.5
20260902132014 17 0.0 0.0 0.00 0.00 0.00 76 1016.5
20260902131513 17 0.0 0.0 0.00 0.00 0.00 78 1016.4
20260902131012 17 0.0 0.0 0.00 0.00 0.00 77 1016.4
20260902130512 17 0.0 0.0 0.00 0.00 0.00 77 1016.4
20260902130011 17 0.0 0.0 0.00 0.00 0.00 77 1016.4
20260902125510 17 0.0 0.0 0.00 0.00 0.00 77 1016.4
20260902125009 17 0.0 0.0 0.00 0.00 0.00 78 1016.5
20260902124508 17 0.0 0.0 0.00 0.00 0.00 78 1016.5
20260902124008 17 0.0 0.0 0.00 0.00 0.00 78 1016.6
20260902123507 17 0.0 0.0 0.00 0.00 0.00 77 1016.7
20260902123006 17 0.0 0.0 0.00 0.00 0.00 77 1016.7
20260902122505 17 0.0 0.0 0.00 0.00 0.00 78 1016.6
20260902122004 17 0.0 0.0 0.00 0.00 0.00 78 1016.6
20260902121503 17 0.0 0.0 0.00 0.00 0.00 77 1016.6
20260902121002 17 0.0 0.0 0.00 0.00 0.00 78 1016.5
20260902120501 17 0.0 0.0 0.00 0.00 0.00 77 1016.5
20260902120000 17 0.0 0.0 0.00 0.00 0.00 77 1016.6
20260902115459 17 0.0 0.0 0.00 0.00 0.00 77 1016.6
20260902114958 17 0.0 0.0 0.00 0.00 0.00 77 1016.6
20260902114458 17 0.0 0.0 0.00 0.00 0.00 77 1016.6
20260902113958 17 0.0 0.0 0.00 0.00 0.00 77 1016.7
20260902113458 17 0.0 0.0 0.00 0.00 0.00 76 1016.8
20260902112957 17 0.0 0.0 0.00 0.00 0.00 76 1016.7
20260902112456 18 0.0 0.0 0.00 0.00 0.00 75 1016.7
20260902111955 18 0.0 0.0 0.00 0.00 0.00 76 1016.7
20260902111454 17 0.0 0.0 0.00 0.00 0.00 76 1016.6
20260902110953 18 0.0 0.0 0.00 0.00 0.00 76 1016.7
20260902110452 18 0.0 0.0 0.00 0.00 0.00 77 1016.7
20260902105951 17 0.0 0.0 0.00 0.00 0.00 77 1016.8
20260902105450 17 0.0 0.0 0.00 0.00 0.00 78 1016.8
20260902104949 17 0.0 0.0 0.00 0.00 0.00 78 1016.7
20260902104449 17 0.0 0.0 0.00 0.00 0.00 77 1016.8
20260902103948 17 0.0 0.0 0.00 0.00 0.00 77 1016.8
20260902103447 17 0.0 0.0 0.00 0.00 0.00 77 1016.8
20260902102946 17 0.0 0.0 0.00 0.00 0.00 77 1016.8
20260902102445 17 0.0 0.0 0.00 0.00 0.00 77 1016.8
20260902101944 17 0.0 0.0 0.00 0.00 0.00 77 1016.8
20260902101443 17 0.0 0.0 0.00 0.00 0.00 77 1016.9
20260902100942 17 0.0 0.0 0.00 0.00 0.00 76 1016.9
20260902100441 17 0.0 0.0 0.00 0.00 0.00 76 1016.9
20260902095940 17 0.0 0.0 0.00 0.00 0.00 76 1016.8
20260902095439 17 0.0 0.0 0.00 0.00 0.00 76 1016.9
20260902094938 17 0.0 0.0 0.00 0.00 0.00 76 1017.0
20260902094438 17 0.0 0.0 0.00 0.00 0.00 76 1017.0
20260902093937 17 0.0 0.0 0.00 0.00 0.00 75 1017.0
20260902093436 17 0.0 0.0 0.00 0.00 0.00 75 1017.0
20260902092935 17 0.0 0.0 0.00 0.00 0.00 76 1016.9
20260902092434 17 0.0 0.0 0.00 0.00 0.00 75 1016.9
20260902091933 17 0.0 0.0 0.00 0.00 0.00 75 1017.0
20260902091432 17 0.0 0.0 0.00 0.00 0.00 74 1016.9
20260902090932 17 0.0 0.0 0.00 0.00 0.00 74 1016.9
20260902090431 18 0.0 0.0 0.00 0.00 0.00 73 1016.9
20260902085930 18 0.0 0.0 0.00 0.00 0.00 74 1016.9
20260902085429 18 0.0 0.0 0.00 0.00 0.00 74 1016.9
20260902084928 18 0.0 0.0 0.00 0.00 0.00 73 1016.9
20260902084427 18 0.0 0.0 0.00 0.00 0.00 72 1017.0
20260902083926 18 0.0 0.0 0.00 0.00 0.00 72 1016.9
20260902083425 18 0.0 0.0 0.00 0.00 0.00 72 1016.9
20260902082924 18 0.0 0.0 0.00 0.00 0.00 72 1017.0
20260902082423 18 0.0 0.0 0.00 0.00 0.00 72 1017.0
20260902081922 18 0.0 0.0 0.00 0.00 0.00 71 1017.0
20260902081421 18 0.0 0.0 0.00 0.00 0.00 71 1017.0
20260902080920 18 0.0 0.0 0.00 0.00 0.00 72 1017.1
20260902080419 18 0.0 0.0 0.00 0.00 0.00 71 1017.1
20260902075918 18 0.0 0.0 0.00 0.00 0.00 71 1017.2
20260902075417 18 0.0 0.0 0.00 0.00 0.00 71 1017.1
20260902074916 18 0.0 0.0 0.00 0.00 0.00 71 1017.1
20260902074415 18 0.0 0.0 0.00 0.00 0.00 71 1017.0
20260902073915 18 0.0 0.0 0.00 0.00 0.00 72 1016.9
20260902073414 18 0.0 0.0 0.00 0.00 0.00 70 1016.8
20260902072913 19 0.0 0.0 0.00 0.00 0.00 70 1016.8
20260902072412 19 0.0 0.0 0.00 0.00 0.00 69 1016.8
20260902071911 19 0.0 0.0 0.00 0.00 0.00 69 1016.6
20260902071410 19 0.0 0.0 0.00 0.00 0.00 68 1016.5
20260902070909 19 0.0 0.0 0.00 0.00 0.00 68 1016.4
20260902070408 19 0.0 0.0 0.00 0.00 0.00 68 1016.4
20260902065907 20 0.0 0.0 0.00 0.00 0.00 67 1016.4
20260902065406 20 0.0 0.0 0.00 0.00 0.00 67 1016.5
20260902064905 20 0.0 0.0 0.00 0.00 0.00 67 1016.5
20260902064404 20 0.0 0.0 0.00 0.00 0.00 66 1016.5
20260902063903 20 0.0 0.0 0.00 0.00 0.00 65 1016.5
20260902063402 20 0.0 0.0 0.00 0.00 0.00 65 1016.4
20260902062901 20 0.0 0.0 0.00 0.00 0.00 65 1016.4
20260902062400 20 0.0 0.0 0.00 0.00 0.00 65 1016.4
20260902061859 20 0.0 0.0 0.00 0.00 0.00 64 1016.4
20260902061359 21 0.0 0.0 0.00 0.00 0.00 64 1016.3
20260902060858 21 0.0 0.0 0.00 0.00 0.00 62 1016.3
20260902060357 21 0.0 0.0 0.00 0.00 0.00 62 1016.3
20260902055856 21 0.0 0.0 0.00 0.00 0.00 63 1016.2
20260902055356 21 0.0 0.0 0.00 0.00 0.00 63 1016.2
20260902054702 21 0.0 0.0 0.00 0.00 0.00 64 1016.1
20260902054201 21 0.0 0.0 0.00 0.00 0.00 63 1016.2
20260902053701 21 0.0 0.0 0.00 0.00 0.00 63 1016.2
20260902053201 21 0.0 0.0 0.00 0.00 0.00 64 1016.3
20260902052701 21 0.0 0.0 0.00 0.00 0.00 62 1016.2
20260902052201 22 0.0 0.0 0.00 0.00 0.00 61 1016.2
20260902051700 21 0.0 0.0 0.00 0.00 0.00 61 1016.2
20260902043840 23 0.0 0.0 0.00 0.00 0.00 57 1015.8
20260902043339 23 0.0 0.0 0.00 0.00 0.00 58 1015.8
20260902042838 23 0.0 0.0 0.00 0.00 0.00 57 1015.7
20260902042338 23 0.0 0.0 0.00 0.00 0.00 56 1015.6
20260902041837 23 0.0 0.0 0.00 0.00 0.00 57 1015.5
20260902041336 23 0.0 0.0 0.00 0.00 0.00 56 1015.5
20260902040835 23 0.0 0.0 0.00 0.00 0.00 54 1015.5
20260902040335 23 0.0 0.0 0.00 0.00 0.00 54 1015.4
20260902035834 24 0.0 0.0 0.00 0.00 0.00 53 1015.2
20260902035333 24 0.0 0.0 0.00 0.00 0.00 54 1015.2
20260902034832 24 0.0 0.0 0.00 0.00 0.00 52 1015.1
20260902034332 25 0.0 0.0 0.00 0.00 0.00 49 1015.0
20260902033831 25 0.0 0.0 0.00 0.00 0.00 50 1015.0
20260902033330 24 0.0 0.0 0.00 0.00 0.00 52 1014.9
20260902032829 25 0.0 0.0 0.00 0.00 0.00 50 1014.8
20260902032329 25 0.0 0.0 0.00 0.00 0.00 48 1014.7
20260902031828 25 0.0 0.0 0.00 0.00 0.00 48 1014.7
20260902031327 25 0.0 0.0 0.00 0.00 0.00 47 1014.6
20260902030826 26 0.0 0.0 0.00 0.00 0.00 46 1014.6
20260902030326 26 0.0 0.0 0.00 0.00 0.00 44 1014.5
20260902025825 27 0.0 0.0 0.00 0.00 0.00 42 1014.4
20260902025324 26 0.0 0.0 0.00 0.00 0.00 44 1014.3
20260902024824 27 0.0 0.0 0.00 0.00 0.00 42 1014.3
20260902024323 27 0.0 0.0 0.00 0.00 0.00 39 1014.3
20260902023822 27 0.0 0.0 0.00 0.00 0.00 39 1014.2
20260902023322 27 0.0 0.0 0.00 0.00 0.00 40 1014.2
20260902022821 27 0.0 0.0 0.00 0.00 0.00 39 1014.2
20260902022320 29 0.0 0.0 0.00 0.00 0.00 36 1014.2
20260902021820 29 0.0 0.0 0.00 0.00 0.00 36 1014.2
20260902021319 28 0.0 0.0 0.00 0.00 0.00 37 1014.2
20260902020818 29 0.0 0.0 0.00 0.00 0.00 36 1014.2
20260902020318 30 0.0 0.0 0.00 0.00 0.00 35 1014.2
20260902015817 30 0.0 0.0 0.00 0.00 0.00 35 1014.2
20260902015317 30 0.0 0.0 0.00 0.00 0.00 36 1014.2
20260902014816 30 0.0 0.0 0.00 0.00 0.00 36 1014.2
20260902014315 30 0.0 0.0 0.00 0.00 0.00 36 1014.3
20260902013815 30 0.0 0.0 0.00 0.00 0.00 36 1014.3
20260902013314 30 0.0 0.0 0.00 0.00 0.00 35 1014.2
20260902012813 31 0.0 0.0 0.00 0.00 0.00 35 1014.2
20260902012313 32 0.0 0.0 0.00 0.00 0.00 33 1014.1
20260902011812 32 0.0 0.0 0.00 0.00 0.00 33 1014.1
20260902011312 32 0.0 0.0 0.00 0.00 0.00 33 1014.1
20260902010811 32 0.0 0.0 0.00 0.00 0.00 33 1014.2
20260902010311 33 0.0 0.0 0.00 0.00 0.00 29 1014.3
20260902005810 34 0.0 0.0 0.00 0.00 0.00 27 1014.3
20260902005310 35 0.0 0.0 0.00 0.00 0.00 27 1014.3
20260902004809 33 0.0 0.0 0.00 0.00 0.00 28 1014.4
20260902004309 33 0.0 0.0 0.00 0.00 0.00 27 1014.3
20260902003808 35 0.0 0.0 0.00 0.00 0.00 24 1014.4
20260902003307 35 0.0 0.0 0.00 0.00 0.00 23 1014.4
20260902002807 35 0.0 0.0 0.00 0.00 0.00 23 1014.4
20260902002307 35 0.0 0.0 0.00 0.00 0.00 22 1014.3
20260902001806 36 0.0 0.0 0.00 0.00 0.00 20 1014.4
20260902001306 37 0.0 0.0 0.00 0.00 0.00 19 1014.4
20260902000805 36 0.0 0.0 0.00 0.00 0.00 20 1014.4
20260902000304 35 0.0 0.0 0.00 0.00 0.00 20 1014.4
20260901235804 36 0.0 0.0 0.00 0.00 0.00 19 1014.5
20260901235307 36 0.0 0.0 0.00 0.00 0.00 20 1014.5
20260901234803 36 0.0 0.0 0.00 0.00 0.00 19 1014.5
20260901234302 36 0.0 0.0 0.00 0.00 0.00 18 1014.5
20260901233802 36 0.0 0.0 0.00 0.00 0.00 17 1014.5
20260901233301 36 0.0 0.0 0.00 0.00 0.00 18 1014.5
20260901232801 35 0.0 0.0 0.00 0.00 0.00 17 1014.6
20260901232300 35 0.0 0.0 0.00 0.00 0.00 18 1014.7
20260901231800 36 0.0 0.0 0.00 0.00 0.00 16 1014.6
20260901231259 37 0.0 0.0 0.00 0.00 0.00 16 1014.6
20260901230759 36 0.0 0.0 0.00 0.00 0.00 16 1014.6
20260901230258 36 0.0 0.0 0.00 0.00 0.00 15 1014.7
20260901225758 36 0.0 0.0 0.00 0.00 0.00 15 1014.7
20260901225257 37 0.0 0.0 0.00 0.00 0.00 15 1014.7
20260901224757 36 0.0 0.0 0.00 0.00 0.00 16 1014.8
20260901224256 35 0.0 0.0 0.00 0.00 0.00 17 1014.9
20260901223756 36 0.0 0.0 0.00 0.00 0.00 16 1014.9
20260901223255 36 0.0 0.0 0.00 0.00 0.00 17 1014.9
20260901222755 36 0.0 0.0 0.00 0.00 0.00 18 1015.0
20260901222254 35 0.0 0.0 0.00 0.00 0.00 19 1015.1
20260901221754 36 0.0 0.0 0.00 0.00 0.00 20 1015.0
20260901221253 36 0.0 0.0 0.00 0.00 0.00 20 1015.1
20260901220753 36 0.0 0.0 0.00 0.00 0.00 21 1015.2
20260901220252 34 0.0 0.0 0.00 0.00 0.00 22 1015.2
20260901215752 36 0.0 0.0 0.00 0.00 0.00 19 1015.2
20260901215251 36 0.0 0.0 0.00 0.00 0.00 20 1015.3
20260901214751 35 0.0 0.0 0.00 0.00 0.00 21 1015.4
20260901214250 35 0.0 0.0 0.00 0.00 0.00 22 1015.3
20260901213750 35 0.0 0.0 0.00 0.00 0.00 22 1015.3
20260901213249 34 0.0 0.0 0.00 0.00 0.00 25 1015.4
20260901212748 33 0.0 0.0 0.00 0.00 0.00 26 1015.4
20260901212248 33 0.0 0.0 0.00 0.00 0.00 27 1015.4
20260901211747 32 0.0 0.0 0.00 0.00 0.00 26 1015.5
20260901211247 33 0.0 0.0 0.00 0.00 0.00 26 1015.5
20260901210746 33 0.0 0.0 0.00 0.00 0.00 28 1015.5
20260901210246 32 0.0 0.0 0.00 0.00 0.00 29 1015.5
20260901205745 33 0.0 0.0 0.00 0.00 0.00 28 1015.6
20260901205244 33 0.0 0.0 0.00 0.00 0.00 30 1015.6
20260901204744 31 0.0 0.0 0.00 0.00 0.00 33 1015.7